Time,TemperatureF,DewpointF,PressureIn,WindDirection,WindDirectionDegrees,WindSpeedMPH,WindSpeedGustMPH,Humidity,HourlyPrecipIn,Conditions,Clouds,dailyrainin,SoftwareType,DateUTC
2013-02-27 00:00:00,33.0,29.0,29.89,West,270,0.0,0.0,85,0.00,,,0.00,Rainwise IP-100,2013-02-27 05:00:00,
2013-02-27 00:05:00,32.0,29.0,29.88,SE,135,0.0,0.0,90,0.00,,,0.00,Rainwise IP-100,2013-02-27 05:05:00,
2013-02-27 00:10:00,33.0,31.0,29.87,SE,135,0.0,0.0,88,0.00,,,0.00,Rainwise IP-100,2013-02-27 05:10:00,
2013-02-27 00:15:00,32.0,29.0,29.87,North,360,0.0,0.0,90,0.00,,,0.00,Rainwise IP-100,2013-02-27 05:15:00,
2013-02-27 00:20:00,32.0,31.0,29.86,North,360,0.0,0.0,92,0.00,,,0.00,Rainwise IP-100,2013-02-27 05:20:00,
2013-02-27 00:25:00,32.0,29.0,29.86,North,360,0.0,0.0,91,0.00,,,0.00,Rainwise IP-100,2013-02-27 05:25:00,
2013-02-27 00:30:00,32.0,29.0,29.85,NNE,22,0.0,0.0,91,0.00,,,0.00,Rainwise IP-100,2013-02-27 05:30:00,
2013-02-27 00:35:00,32.0,31.0,29.85,NE,45,0.0,1.0,92,0.00,,,0.00,Rainwise IP-100,2013-02-27 05:35:00,
2013-02-27 00:40:00,32.0,29.0,29.85,NE,45,0.0,4.0,91,0.00,,,0.00,Rainwise IP-100,2013-02-27 05:40:00,
2013-02-27 00:45:00,32.0,29.0,29.85,North,360,0.0,5.0,91,0.00,,,0.00,Rainwise IP-100,2013-02-27 05:45:00,
2013-02-27 00:50:00,32.0,29.0,29.84,NNE,22,3.0,6.0,90,0.00,,,0.00,Rainwise IP-100,2013-02-27 05:50:00,
2013-02-27 00:55:00,32.0,29.0,29.84,NNE,22,0.0,6.0,90,0.00,,,0.00,Rainwise IP-100,2013-02-27 05:55:00,
2013-02-27 01:00:00,32.0,29.0,29.85,NNE,22,0.0,3.0,90,0.00,,,0.00,Rainwise IP-100,2013-02-27 06:00:00,
2013-02-27 01:05:00,32.0,29.0,29.85,NNE,22,0.0,1.0,91,0.00,,,0.00,Rainwise IP-100,2013-02-27 06:05:00,
2013-02-27 01:10:00,32.0,29.0,29.87,NNE,22,1.0,5.0,91,0.00,,,0.00,Rainwise IP-100,2013-02-27 06:10:00,
2013-02-27 01:15:00,32.0,31.0,29.85,NNE,22,6.0,6.0,92,0.00,,,0.00,Rainwise IP-100,2013-02-27 06:15:00,
2013-02-27 01:20:00,32.0,31.0,29.85,North,360,0.0,8.0,94,0.00,,,0.00,Rainwise IP-100,2013-02-27 06:20:00,
2013-02-27 01:25:00,32.0,31.0,29.84,NE,45,5.0,6.0,95,0.00,,,0.00,Rainwise IP-100,2013-02-27 06:25:00,
2013-02-27 01:30:00,32.0,31.0,29.84,NNE,22,2.0,7.0,96,0.00,,,0.00,Rainwise IP-100,2013-02-27 06:30:00,
2013-02-27 01:35:00,32.0,31.0,29.85,NE,45,3.0,7.0,96,0.00,,,0.00,Rainwise IP-100,2013-02-27 06:35:00,
2013-02-27 01:40:00,32.0,31.0,29.85,NNE,22,3.0,8.0,97,0.00,,,0.00,Rainwise IP-100,2013-02-27 06:40:00,
2013-02-27 01:45:00,32.0,32.0,29.85,NE,45,5.0,10.0,98,0.00,,,0.00,Rainwise IP-100,2013-02-27 06:45:00,
2013-02-27 01:50:00,32.0,32.0,29.85,North,360,0.0,8.0,99,0.00,,,0.00,Rainwise IP-100,2013-02-27 06:50:00,
2013-02-27 01:55:00,32.0,32.0,29.85,North,360,0.0,5.0,99,0.00,,,0.00,Rainwise IP-100,2013-02-27 06:55:00,
2013-02-27 02:00:00,32.0,32.0,29.85,NW,315,2.0,5.0,100,0.00,,,0.00,Rainwise IP-100,2013-02-27 07:00:00,
2013-02-27 02:02:00,32.0,32.0,29.84,North,360,1.0,6.0,100,0.00,,,0.00,Rainwise IP-100,2013-02-27 07:02:00,
2013-02-27 02:07:00,31.0,31.0,29.84,NNW,337,3.0,8.0,100,0.00,,,0.00,Rainwise IP-100,2013-02-27 07:07:00,
2013-02-27 02:12:00,31.0,31.0,29.83,NNW,337,1.0,5.0,100,0.00,,,0.00,Rainwise IP-100,2013-02-27 07:12:00,
2013-02-27 02:17:00,31.0,31.0,29.83,North,360,0.0,6.0,100,0.00,,,0.00,Rainwise IP-100,2013-02-27 07:17:00,
2013-02-27 02:22:00,31.0,31.0,29.83,NW,315,1.0,4.0,100,0.00,,,0.00,Rainwise IP-100,2013-02-27 07:22:00,
2013-02-27 02:27:00,31.0,31.0,29.83,North,360,1.0,6.0,100,0.00,,,0.00,Rainwise IP-100,2013-02-27 07:27:00,
2013-02-27 02:32:00,30.0,31.0,29.82,North,360,6.0,8.0,100,0.00,,,0.00,Rainwise IP-100,2013-02-27 07:32:00,
2013-02-27 02:37:00,30.0,31.0,29.82,North,360,4.0,8.0,100,0.00,,,0.00,Rainwise IP-100,2013-02-27 07:37:00,
2013-02-27 02:42:00,30.0,31.0,29.81,North,360,4.0,9.0,100,0.00,,,0.00,Rainwise IP-100,2013-02-27 07:42:00,
2013-02-27 02:47:00,30.0,31.0,29.81,NW,315,6.0,8.0,100,0.00,,,0.00,Rainwise IP-100,2013-02-27 07:47:00,
2013-02-27 02:52:00,30.0,31.0,29.80,NW,315,4.0,10.0,100,0.00,,,0.00,Rainwise IP-100,2013-02-27 07:52:00,
2013-02-27 02:57:00,30.0,31.0,29.80,NW,315,1.0,11.0,100,0.00,,,0.00,Rainwise IP-100,2013-02-27 07:57:00,
2013-02-27 03:02:00,30.0,31.0,29.78,NW,315,2.0,11.0,100,0.00,,,0.00,Rainwise IP-100,2013-02-27 08:02:00,
2013-02-27 03:07:00,31.0,31.0,29.79,West,270,0.0,7.0,100,0.00,,,0.00,Rainwise IP-100,2013-02-27 08:07:00,
2013-02-27 03:12:00,31.0,31.0,29.79,NW,315,1.0,8.0,100,0.00,,,0.00,Rainwise IP-100,2013-02-27 08:12:00,
2013-02-27 03:17:00,31.0,31.0,29.78,North,360,1.0,6.0,100,0.00,,,0.00,Rainwise IP-100,2013-02-27 08:17:00,
2013-02-27 03:22:00,31.0,31.0,29.78,NNE,22,3.0,7.0,100,0.00,,,0.00,Rainwise IP-100,2013-02-27 08:22:00,
2013-02-27 03:27:00,31.0,31.0,29.76,NW,315,5.0,10.0,100,0.00,,,0.00,Rainwise IP-100,2013-02-27 08:27:00,
2013-02-27 03:32:00,31.0,31.0,29.76,North,360,5.0,8.0,100,0.00,,,0.00,Rainwise IP-100,2013-02-27 08:32:00,
2013-02-27 03:37:00,31.0,31.0,29.76,NNE,22,0.0,6.0,100,0.00,,,0.00,Rainwise IP-100,2013-02-27 08:37:00,
2013-02-27 03:42:00,31.0,31.0,29.76,NNW,337,0.0,5.0,100,0.00,,,0.00,Rainwise IP-100,2013-02-27 08:42:00,
2013-02-27 03:47:00,31.0,31.0,29.76,NW,315,1.0,6.0,100,0.00,,,0.00,Rainwise IP-100,2013-02-27 08:47:00,
2013-02-27 03:52:00,31.0,31.0,29.76,North,360,0.0,3.0,100,0.00,,,0.00,Rainwise IP-100,2013-02-27 08:52:00,
2013-02-27 03:57:00,31.0,31.0,29.76,North,360,0.0,5.0,100,0.00,,,0.00,Rainwise IP-100,2013-02-27 08:57:00,
2013-02-27 04:00:00,31.0,31.0,29.76,NW,315,6.0,6.0,100,0.00,,,0.00,Rainwise IP-100,2013-02-27 09:00:00,
2013-02-27 04:05:00,31.0,31.0,29.75,NNW,337,0.0,8.0,100,0.00,,,0.00,Rainwise IP-100,2013-02-27 09:05:00,
2013-02-27 04:10:00,31.0,31.0,29.75,NW,315,0.0,8.0,100,0.00,,,0.00,Rainwise IP-100,2013-02-27 09:10:00,
2013-02-27 04:15:00,31.0,31.0,29.74,North,360,5.0,8.0,100,0.00,,,0.00,Rainwise IP-100,2013-02-27 09:15:00,
2013-02-27 04:20:00,31.0,31.0,29.74,NNW,337,0.0,9.0,100,0.00,,,0.00,Rainwise IP-100,2013-02-27 09:20:00,
2013-02-27 04:25:00,31.0,31.0,29.73,North,360,8.0,10.0,100,0.00,,,0.00,Rainwise IP-100,2013-02-27 09:25:00,
2013-02-27 04:30:00,32.0,32.0,29.72,NNW,337,8.0,11.0,100,0.00,,,0.00,Rainwise IP-100,2013-02-27 09:30:00,
2013-02-27 04:35:00,32.0,32.0,29.72,North,360,2.0,11.0,100,0.00,,,0.00,Rainwise IP-100,2013-02-27 09:35:00,
2013-02-27 04:40:00,32.0,32.0,29.72,NW,315,2.0,8.0,100,0.00,,,0.00,Rainwise IP-100,2013-02-27 09:40:00,
2013-02-27 04:45:00,32.0,32.0,29.72,North,360,4.0,9.0,100,0.00,,,0.00,Rainwise IP-100,2013-02-27 09:45:00,
2013-02-27 04:50:00,32.0,32.0,29.71,North,360,5.0,11.0,100,0.00,,,0.00,Rainwise IP-100,2013-02-27 09:50:00,
2013-02-27 04:55:00,32.0,32.0,29.71,NW,315,0.0,10.0,100,0.00,,,0.00,Rainwise IP-100,2013-02-27 09:55:00,
2013-02-27 05:00:00,32.0,32.0,29.71,NNW,337,3.0,8.0,100,0.00,,,0.00,Rainwise IP-100,2013-02-27 10:00:00,
2013-02-27 05:05:00,32.0,32.0,29.71,North,360,5.0,10.0,100,0.00,,,0.00,Rainwise IP-100,2013-02-27 10:05:00,
2013-02-27 05:10:00,32.0,32.0,29.70,WNW,292,4.0,10.0,100,0.00,,,0.00,Rainwise IP-100,2013-02-27 10:10:00,
2013-02-27 05:15:00,32.0,32.0,29.70,NW,315,1.0,7.0,100,0.00,,,0.00,Rainwise IP-100,2013-02-27 10:15:00,
2013-02-27 05:20:00,32.0,32.0,29.70,NNW,337,4.0,7.0,100,0.00,,,0.00,Rainwise IP-100,2013-02-27 10:20:00,
2013-02-27 05:25:00,32.0,32.0,29.70,NNE,22,0.0,7.0,100,0.00,,,0.00,Rainwise IP-100,2013-02-27 10:25:00,
2013-02-27 05:30:00,32.0,32.0,29.69,NNW,337,2.0,6.0,100,0.00,,,0.00,Rainwise IP-100,2013-02-27 10:30:00,
2013-02-27 05:35:00,32.0,32.0,29.69,NW,315,2.0,6.0,100,0.00,,,0.00,Rainwise IP-100,2013-02-27 10:35:00,
2013-02-27 05:40:00,32.0,32.0,29.70,North,360,0.0,6.0,100,0.00,,,0.00,Rainwise IP-100,2013-02-27 10:40:00,
2013-02-27 05:45:00,32.0,32.0,29.69,NNE,22,0.0,6.0,100,0.00,,,0.00,Rainwise IP-100,2013-02-27 10:45:00,
2013-02-27 05:50:00,32.0,32.0,29.69,North,360,2.0,6.0,100,0.00,,,0.00,Rainwise IP-100,2013-02-27 10:50:00,
2013-02-27 05:55:00,32.0,32.0,29.68,NNW,337,2.0,5.0,100,0.00,,,0.00,Rainwise IP-100,2013-02-27 10:55:00,
2013-02-27 06:00:00,32.0,32.0,29.68,North,360,8.0,9.0,100,0.00,,,0.00,Rainwise IP-100,2013-02-27 11:00:00,
2013-02-27 06:05:00,32.0,32.0,29.67,NNE,22,1.0,10.0,100,0.00,,,0.00,Rainwise IP-100,2013-02-27 11:05:00,
2013-02-27 06:06:00,32.0,32.0,29.67,North,360,1.0,8.0,100,0.00,,,0.00,Rainwise IP-100,2013-02-27 11:06:00,
2013-02-27 06:11:00,32.0,32.0,29.67,NNW,337,5.0,5.0,100,0.00,,,0.00,Rainwise IP-100,2013-02-27 11:11:00,
2013-02-27 06:16:00,32.0,32.0,29.66,North,360,2.0,6.0,100,0.00,,,0.00,Rainwise IP-100,2013-02-27 11:16:00,
2013-02-27 06:21:00,32.0,32.0,29.66,NW,315,0.0,6.0,100,0.00,,,0.00,Rainwise IP-100,2013-02-27 11:21:00,
2013-02-27 06:26:00,32.0,32.0,29.66,NW,315,0.0,6.0,100,0.00,,,0.00,Rainwise IP-100,2013-02-27 11:26:00,
2013-02-27 06:31:00,32.0,32.0,29.66,West,270,2.0,2.0,100,0.00,,,0.00,Rainwise IP-100,2013-02-27 11:31:00,
2013-02-27 06:36:00,32.0,32.0,29.66,North,360,1.0,5.0,100,0.00,,,0.00,Rainwise IP-100,2013-02-27 11:36:00,
2013-02-27 06:41:00,32.0,32.0,29.65,WNW,292,1.0,6.0,100,0.00,,,0.00,Rainwise IP-100,2013-02-27 11:41:00,
2013-02-27 06:46:00,32.0,32.0,29.65,WNW,292,2.0,6.0,100,0.00,,,0.00,Rainwise IP-100,2013-02-27 11:46:00,
2013-02-27 06:51:00,32.0,32.0,29.64,North,360,0.0,5.0,100,0.00,,,0.00,Rainwise IP-100,2013-02-27 11:51:00,
2013-02-27 06:56:00,32.0,32.0,29.64,NW,315,0.0,3.0,100,0.00,,,0.00,Rainwise IP-100,2013-02-27 11:56:00,
2013-02-27 07:01:00,32.0,32.0,29.64,WNW,292,0.0,8.0,100,0.00,,,0.00,Rainwise IP-100,2013-02-27 12:01:00,
2013-02-27 07:06:00,32.0,32.0,29.64,NW,315,0.0,6.0,100,0.00,,,0.00,Rainwise IP-100,2013-02-27 12:06:00,
2013-02-27 07:11:00,32.0,32.0,29.64,NNW,337,3.0,9.0,100,0.00,,,0.00,Rainwise IP-100,2013-02-27 12:11:00,
2013-02-27 07:16:00,32.0,32.0,29.64,North,360,0.0,8.0,100,0.00,,,0.00,Rainwise IP-100,2013-02-27 12:16:00,
2013-02-27 07:21:00,32.0,32.0,29.63,North,360,2.0,8.0,100,0.00,,,0.00,Rainwise IP-100,2013-02-27 12:21:00,
2013-02-27 07:26:00,32.0,32.0,29.63,NE,45,0.0,6.0,100,0.00,,,0.00,Rainwise IP-100,2013-02-27 12:26:00,
2013-02-27 07:31:00,32.0,32.0,29.63,NW,315,0.0,8.0,100,0.00,,,0.00,Rainwise IP-100,2013-02-27 12:31:00,
2013-02-27 07:36:00,32.0,32.0,29.63,WNW,292,6.0,11.0,100,0.00,,,0.00,Rainwise IP-100,2013-02-27 12:36:00,
2013-02-27 07:41:00,33.0,33.0,29.62,NW,315,0.0,9.0,100,0.00,,,0.00,Rainwise IP-100,2013-02-27 12:41:00,
2013-02-27 07:46:00,33.0,33.0,29.62,NNW,337,2.0,8.0,100,0.00,,,0.00,Rainwise IP-100,2013-02-27 12:46:00,
2013-02-27 07:51:00,33.0,33.0,29.61,NNE,22,1.0,5.0,100,0.00,,,0.00,Rainwise IP-100,2013-02-27 12:51:00,
2013-02-27 07:56:00,34.0,35.0,29.61,North,360,5.0,6.0,100,0.18,,,0.04,Rainwise IP-100,2013-02-27 12:56:00,
2013-02-27 08:01:00,33.0,33.0,29.61,NW,315,6.0,9.0,100,0.30,,,0.05,Rainwise IP-100,2013-02-27 13:01:00,
2013-02-27 08:06:00,34.0,35.0,29.60,NNW,337,6.0,7.0,100,0.12,,,0.06,Rainwise IP-100,2013-02-27 13:06:00,
2013-02-27 08:11:00,34.0,35.0,29.60,NNW,337,4.0,9.0,100,0.06,,,0.06,Rainwise IP-100,2013-02-27 13:11:00,
2013-02-27 08:16:00,33.0,33.0,29.60,West,270,5.0,6.0,100,0.12,,,0.07,Rainwise IP-100,2013-02-27 13:16:00,
2013-02-27 08:21:00,34.0,35.0,29.60,NW,315,2.0,7.0,100,0.12,,,0.09,Rainwise IP-100,2013-02-27 13:21:00,
2013-02-27 08:26:00,34.0,35.0,29.60,North,360,2.0,8.0,100,0.12,,,0.10,Rainwise IP-100,2013-02-27 13:26:00,
2013-02-27 08:31:00,34.0,35.0,29.60,NW,315,6.0,8.0,100,0.12,,,0.10,Rainwise IP-100,2013-02-27 13:31:00,
2013-02-27 08:36:00,34.0,35.0,29.59,ENE,67,3.0,11.0,100,0.12,,,0.11,Rainwise IP-100,2013-02-27 13:36:00,
2013-02-27 08:41:00,34.0,35.0,29.59,NW,315,0.0,5.0,100,0.06,,,0.12,Rainwise IP-100,2013-02-27 13:41:00,
2013-02-27 08:46:00,34.0,35.0,29.58,NW,315,1.0,5.0,100,0.06,,,0.12,Rainwise IP-100,2013-02-27 13:46:00,
2013-02-27 08:51:00,35.0,35.0,29.58,North,360,6.0,16.0,100,0.06,,,0.13,Rainwise IP-100,2013-02-27 13:51:00,
2013-02-27 08:56:00,35.0,35.0,29.58,NNW,337,5.0,8.0,100,0.06,,,0.13,Rainwise IP-100,2013-02-27 13:56:00,
2013-02-27 09:01:00,35.0,35.0,29.57,NNW,337,5.0,10.0,100,0.12,,,0.14,Rainwise IP-100,2013-02-27 14:01:00,
2013-02-27 09:06:00,35.0,35.0,29.57,NW,315,2.0,8.0,100,0.06,,,0.14,Rainwise IP-100,2013-02-27 14:06:00,
2013-02-27 09:11:00,35.0,35.0,29.57,ENE,67,4.0,8.0,100,0.00,,,0.15,Rainwise IP-100,2013-02-27 14:11:00,
2013-02-27 09:16:00,35.0,35.0,29.57,NNW,337,5.0,9.0,100,0.06,,,0.15,Rainwise IP-100,2013-02-27 14:16:00,
2013-02-27 09:21:00,35.0,35.0,29.57,NNE,22,0.0,9.0,100,0.12,,,0.16,Rainwise IP-100,2013-02-27 14:21:00,
2013-02-27 09:26:00,35.0,35.0,29.57,North,360,3.0,10.0,100,0.06,,,0.16,Rainwise IP-100,2013-02-27 14:26:00,
2013-02-27 09:31:00,36.0,36.0,29.56,NNW,337,2.0,8.0,100,0.06,,,0.17,Rainwise IP-100,2013-02-27 14:31:00,
2013-02-27 09:36:00,36.0,36.0,29.56,ENE,67,4.0,11.0,100,0.06,,,0.17,Rainwise IP-100,2013-02-27 14:36:00,
2013-02-27 09:41:00,36.0,36.0,29.55,North,360,2.0,11.0,100,0.06,,,0.18,Rainwise IP-100,2013-02-27 14:41:00,
2013-02-27 09:46:00,37.0,37.0,29.55,North,360,3.0,13.0,100,0.06,,,0.18,Rainwise IP-100,2013-02-27 14:46:00,
2013-02-27 09:51:00,37.0,37.0,29.55,North,360,5.0,10.0,100,0.06,,,0.19,Rainwise IP-100,2013-02-27 14:51:00,
2013-02-27 09:56:00,37.0,37.0,29.55,NNW,337,5.0,12.0,100,0.12,,,0.20,Rainwise IP-100,2013-02-27 14:56:00,
2013-02-27 10:01:00,37.0,37.0,29.53,NW,315,2.0,8.0,100,0.06,,,0.20,Rainwise IP-100,2013-02-27 15:01:00,
2013-02-27 10:06:00,37.0,37.0,29.53,North,360,8.0,9.0,100,0.06,,,0.21,Rainwise IP-100,2013-02-27 15:06:00,
2013-02-27 10:11:00,38.0,38.0,29.53,NE,45,2.0,10.0,100,0.12,,,0.22,Rainwise IP-100,2013-02-27 15:11:00,
2013-02-27 10:16:00,39.0,39.0,29.53,NNW,337,6.0,13.0,98,0.12,,,0.23,Rainwise IP-100,2013-02-27 15:16:00,
2013-02-27 10:21:00,39.0,38.0,29.53,NW,315,10.0,11.0,95,0.12,,,0.24,Rainwise IP-100,2013-02-27 15:21:00,
2013-02-27 10:26:00,39.0,38.0,29.53,West,270,7.0,11.0,94,0.12,,,0.25,Rainwise IP-100,2013-02-27 15:26:00,
2013-02-27 10:31:00,39.0,38.0,29.53,NW,315,0.0,14.0,94,0.06,,,0.26,Rainwise IP-100,2013-02-27 15:31:00,
2013-02-27 10:36:00,38.0,37.0,29.52,ESE,112,4.0,10.0,97,0.06,,,0.26,Rainwise IP-100,2013-02-27 15:36:00,
2013-02-27 10:41:00,38.0,38.0,29.52,NNW,337,0.0,11.0,98,0.12,,,0.27,Rainwise IP-100,2013-02-27 15:41:00,
2013-02-27 10:46:00,38.0,38.0,29.51,NE,45,3.0,9.0,98,0.12,,,0.28,Rainwise IP-100,2013-02-27 15:46:00,
2013-02-27 10:51:00,39.0,38.0,29.51,North,360,8.0,13.0,97,0.12,,,0.29,Rainwise IP-100,2013-02-27 15:51:00,
2013-02-27 10:56:00,40.0,39.0,29.51,ENE,67,10.0,16.0,94,0.12,,,0.30,Rainwise IP-100,2013-02-27 15:56:00,
2013-02-27 11:01:00,41.0,39.0,29.51,East,90,8.0,23.0,91,0.18,,,0.32,Rainwise IP-100,2013-02-27 16:01:00,
2013-02-27 11:06:00,41.0,38.0,29.51,NE,45,0.0,16.0,90,0.18,,,0.34,Rainwise IP-100,2013-02-27 16:06:00,
2013-02-27 11:11:00,41.0,38.0,29.51,ENE,67,15.0,16.0,90,0.18,,,0.35,Rainwise IP-100,2013-02-27 16:11:00,
2013-02-27 11:17:00,41.0,38.0,29.50,ENE,67,8.0,21.0,88,0.24,,,0.37,Rainwise IP-100,2013-02-27 16:17:00,
2013-02-27 11:22:00,42.0,38.0,29.49,NE,45,10.0,19.0,86,0.18,,,0.39,Rainwise IP-100,2013-02-27 16:22:00,
2013-02-27 11:27:00,42.0,38.0,29.49,NE,45,18.0,20.0,86,0.18,,,0.40,Rainwise IP-100,2013-02-27 16:27:00,
2013-02-27 11:32:00,42.0,38.0,29.47,ENE,67,7.0,21.0,85,0.24,,,0.42,Rainwise IP-100,2013-02-27 16:32:00,
2013-02-27 11:37:00,42.0,37.0,29.47,NE,45,18.0,19.0,83,0.18,,,0.44,Rainwise IP-100,2013-02-27 16:37:00,
2013-02-27 11:42:00,42.0,38.0,29.47,East,90,6.0,19.0,85,0.18,,,0.45,Rainwise IP-100,2013-02-27 16:42:00,
2013-02-27 11:47:00,42.0,38.0,29.47,East,90,8.0,14.0,84,0.18,,,0.47,Rainwise IP-100,2013-02-27 16:47:00,
2013-02-27 11:52:00,42.0,37.0,29.47,East,90,10.0,18.0,83,0.18,,,0.48,Rainwise IP-100,2013-02-27 16:52:00,
2013-02-27 11:57:00,42.0,37.0,29.47,NE,45,8.0,16.0,83,0.24,,,0.50,Rainwise IP-100,2013-02-27 16:57:00,
2013-02-27 12:02:00,42.0,37.0,29.47,ENE,67,8.0,18.0,83,0.12,,,0.50,Rainwise IP-100,2013-02-27 17:02:00,
2013-02-27 12:07:00,43.0,39.0,29.47,East,90,11.0,17.0,84,0.00,,,0.51,Rainwise IP-100,2013-02-27 17:07:00,
2013-02-27 12:12:00,42.0,37.0,29.47,East,90,7.0,15.0,83,0.12,,,0.52,Rainwise IP-100,2013-02-27 17:12:00,
2013-02-27 12:17:00,42.0,38.0,29.47,ENE,67,9.0,11.0,84,0.12,,,0.52,Rainwise IP-100,2013-02-27 17:17:00,
2013-02-27 12:22:00,42.0,38.0,29.46,ENE,67,6.0,10.0,84,0.12,,,0.54,Rainwise IP-100,2013-02-27 17:22:00,
2013-02-27 12:27:00,43.0,39.0,29.45,NE,45,12.0,12.0,84,0.12,,,0.54,Rainwise IP-100,2013-02-27 17:27:00,
2013-02-27 12:32:00,42.0,37.0,29.45,NE,45,8.0,13.0,83,0.06,,,0.55,Rainwise IP-100,2013-02-27 17:32:00,
2013-02-27 12:37:00,43.0,39.0,29.45,East,90,8.0,12.0,84,0.18,,,0.57,Rainwise IP-100,2013-02-27 17:37:00,
2013-02-27 12:42:00,42.0,38.0,29.45,East,90,5.0,14.0,86,0.12,,,0.58,Rainwise IP-100,2013-02-27 17:42:00,
2013-02-27 12:47:00,42.0,39.0,29.44,ENE,67,5.0,12.0,88,0.18,,,0.60,Rainwise IP-100,2013-02-27 17:47:00,
2013-02-27 12:52:00,42.0,39.0,29.44,ENE,67,4.0,11.0,90,0.24,,,0.61,Rainwise IP-100,2013-02-27 17:52:00,
2013-02-27 12:57:00,42.0,39.0,29.44,East,90,6.0,11.0,90,0.06,,,0.61,Rainwise IP-100,2013-02-27 17:57:00,
2013-02-27 13:02:00,42.0,39.0,29.44,NE,45,3.0,14.0,90,0.06,,,0.62,Rainwise IP-100,2013-02-27 18:02:00,
2013-02-27 13:07:00,42.0,40.0,29.44,NE,45,4.0,11.0,91,0.12,,,0.63,Rainwise IP-100,2013-02-27 18:07:00,
2013-02-27 13:12:00,42.0,40.0,29.44,NE,45,5.0,7.0,91,0.06,,,0.63,Rainwise IP-100,2013-02-27 18:12:00,
2013-02-27 13:17:00,42.0,40.0,29.44,NE,45,6.0,10.0,91,0.12,,,0.65,Rainwise IP-100,2013-02-27 18:17:00,
2013-02-27 13:22:00,41.0,39.0,29.44,East,90,6.0,13.0,91,0.18,,,0.66,Rainwise IP-100,2013-02-27 18:22:00,
2013-02-27 13:27:00,41.0,39.0,29.42,NE,45,4.0,11.0,91,0.12,,,0.67,Rainwise IP-100,2013-02-27 18:27:00,
2013-02-27 13:32:00,41.0,38.0,29.42,NE,45,8.0,18.0,90,0.06,,,0.68,Rainwise IP-100,2013-02-27 18:32:00,
2013-02-27 13:37:00,41.0,39.0,29.42,ENE,67,7.0,10.0,91,0.06,,,0.69,Rainwise IP-100,2013-02-27 18:37:00,
2013-02-27 13:42:00,42.0,40.0,29.42,ENE,67,5.0,17.0,91,0.12,,,0.69,Rainwise IP-100,2013-02-27 18:42:00,
2013-02-27 13:47:00,41.0,39.0,29.42,NE,45,10.0,13.0,91,0.12,,,0.70,Rainwise IP-100,2013-02-27 18:47:00,
2013-02-27 13:52:00,41.0,39.0,29.41,ENE,67,6.0,13.0,92,0.06,,,0.70,Rainwise IP-100,2013-02-27 18:52:00,
2013-02-27 13:57:00,41.0,39.0,29.41,NE,45,8.0,10.0,92,0.06,,,0.71,Rainwise IP-100,2013-02-27 18:57:00,
2013-02-27 14:02:00,41.0,39.0,29.40,ENE,67,7.0,15.0,91,0.06,,,0.72,Rainwise IP-100,2013-02-27 19:02:00,
2013-02-27 14:07:00,41.0,38.0,29.40,East,90,5.0,13.0,90,0.06,,,0.72,Rainwise IP-100,2013-02-27 19:07:00,
2013-02-27 14:12:00,41.0,38.0,29.40,NE,45,4.0,8.0,90,0.06,,,0.72,Rainwise IP-100,2013-02-27 19:12:00,
2013-02-27 14:17:00,42.0,39.0,29.40,East,90,1.0,11.0,90,0.06,,,0.73,Rainwise IP-100,2013-02-27 19:17:00,
2013-02-27 14:22:00,42.0,39.0,29.41,NE,45,0.0,5.0,90,0.06,,,0.73,Rainwise IP-100,2013-02-27 19:22:00,
2013-02-27 14:27:00,42.0,39.0,29.41,NNE,22,2.0,6.0,89,0.00,,,0.73,Rainwise IP-100,2013-02-27 19:27:00,
2013-02-27 14:32:00,42.0,39.0,29.42,NNW,337,0.0,5.0,88,0.00,,,0.73,Rainwise IP-100,2013-02-27 19:32:00,
2013-02-27 14:37:00,42.0,39.0,29.42,ENE,67,1.0,5.0,88,0.00,,,0.73,Rainwise IP-100,2013-02-27 19:37:00,
2013-02-27 14:42:00,42.0,39.0,29.42,ENE,67,0.0,3.0,88,0.06,,,0.74,Rainwise IP-100,2013-02-27 19:42:00,
2013-02-27 14:47:00,43.0,40.0,29.41,ENE,67,2.0,4.0,88,0.06,,,0.74,Rainwise IP-100,2013-02-27 19:47:00,
2013-02-27 14:52:00,42.0,39.0,29.41,ENE,67,5.0,5.0,88,0.00,,,0.74,Rainwise IP-100,2013-02-27 19:52:00,
2013-02-27 14:57:00,43.0,39.0,29.41,ENE,67,9.0,9.0,87,0.00,,,0.74,Rainwise IP-100,2013-02-27 19:57:00,
2013-02-27 15:02:00,43.0,39.0,29.41,East,90,5.0,13.0,87,0.00,,,0.74,Rainwise IP-100,2013-02-27 20:02:00,
2013-02-27 15:07:00,43.0,39.0,29.40,NE,45,10.0,13.0,86,0.06,,,0.75,Rainwise IP-100,2013-02-27 20:07:00,
2013-02-27 15:12:00,43.0,39.0,29.40,ENE,67,5.0,13.0,85,0.06,,,0.75,Rainwise IP-100,2013-02-27 20:12:00,
2013-02-27 15:17:00,43.0,39.0,29.40,NE,45,5.0,10.0,85,0.00,,,0.75,Rainwise IP-100,2013-02-27 20:17:00,
2013-02-27 15:22:00,43.0,39.0,29.40,East,90,8.0,13.0,85,0.00,,,0.75,Rainwise IP-100,2013-02-27 20:22:00,
2013-02-27 15:27:00,43.0,39.0,29.40,ENE,67,7.0,11.0,85,0.00,,,0.75,Rainwise IP-100,2013-02-27 20:27:00,
2013-02-27 15:32:00,43.0,39.0,29.40,NE,45,11.0,11.0,86,0.00,,,0.75,Rainwise IP-100,2013-02-27 20:32:00,
2013-02-27 15:37:00,43.0,39.0,29.39,NNE,22,6.0,14.0,86,0.00,,,0.75,Rainwise IP-100,2013-02-27 20:37:00,
2013-02-27 15:42:00,43.0,39.0,29.39,NE,45,8.0,11.0,86,0.00,,,0.75,Rainwise IP-100,2013-02-27 20:42:00,
2013-02-27 15:47:00,43.0,39.0,29.38,North,360,6.0,10.0,87,0.00,,,0.75,Rainwise IP-100,2013-02-27 20:47:00,
2013-02-27 15:52:00,42.0,38.0,29.38,NNE,22,5.0,9.0,86,0.00,,,0.75,Rainwise IP-100,2013-02-27 20:52:00,
2013-02-27 15:57:00,42.0,38.0,29.38,NE,45,0.0,7.0,86,0.00,,,0.75,Rainwise IP-100,2013-02-27 20:57:00,
2013-02-27 16:02:00,42.0,38.0,29.38,NNE,22,0.0,8.0,86,0.00,,,0.75,Rainwise IP-100,2013-02-27 21:02:00,
2013-02-27 16:07:00,42.0,39.0,29.38,North,360,0.0,5.0,88,0.00,,,0.75,Rainwise IP-100,2013-02-27 21:07:00,
2013-02-27 16:12:00,42.0,39.0,29.38,West,270,5.0,6.0,90,0.00,,,0.75,Rainwise IP-100,2013-02-27 21:12:00,
2013-02-27 16:17:00,42.0,39.0,29.38,NW,315,1.0,8.0,90,0.00,,,0.75,Rainwise IP-100,2013-02-27 21:17:00,
2013-02-27 16:22:00,42.0,39.0,29.38,East,90,0.0,3.0,89,0.00,,,0.75,Rainwise IP-100,2013-02-27 21:22:00,
2013-02-27 16:27:00,42.0,38.0,29.38,ENE,67,3.0,16.0,86,0.00,,,0.75,Rainwise IP-100,2013-02-27 21:27:00,
2013-02-27 16:32:00,42.0,38.0,29.39,SSW,202,0.0,10.0,86,0.00,,,0.75,Rainwise IP-100,2013-02-27 21:32:00,
2013-02-27 16:37:00,42.0,38.0,29.39,SW,225,0.0,2.0,87,0.06,,,0.76,Rainwise IP-100,2013-02-27 21:37:00,
2013-02-27 16:42:00,42.0,39.0,29.40,ENE,67,2.0,9.0,89,0.12,,,0.77,Rainwise IP-100,2013-02-27 21:42:00,
2013-02-27 16:47:00,42.0,39.0,29.40,NNW,337,0.0,12.0,90,0.12,,,0.78,Rainwise IP-100,2013-02-27 21:47:00,
2013-02-27 16:52:00,41.0,38.0,29.40,South,180,3.0,7.0,90,0.12,,,0.80,Rainwise IP-100,2013-02-27 21:52:00,
2013-02-27 16:57:00,41.0,39.0,29.40,East,90,8.0,17.0,92,0.18,,,0.81,Rainwise IP-100,2013-02-27 21:57:00,
2013-02-27 17:02:00,41.0,39.0,29.40,East,90,19.0,19.0,92,0.12,,,0.82,Rainwise IP-100,2013-02-27 22:02:00,
2013-02-27 17:07:00,41.0,39.0,29.40,SW,225,0.0,22.0,92,0.06,,,0.82,Rainwise IP-100,2013-02-27 22:07:00,
2013-02-27 17:12:00,40.0,38.0,29.40,SE,135,0.0,3.0,93,0.12,,,0.83,Rainwise IP-100,2013-02-27 22:12:00,
2013-02-27 17:17:00,40.0,38.0,29.40,SE,135,0.0,0.0,92,0.06,,,0.83,Rainwise IP-100,2013-02-27 22:17:00,
2013-02-27 17:22:00,40.0,38.0,29.40,SE,135,0.0,0.0,93,0.00,,,0.83,Rainwise IP-100,2013-02-27 22:22:00,
2013-02-27 17:27:00,40.0,38.0,29.41,SSE,157,0.0,0.0,92,0.06,,,0.84,Rainwise IP-100,2013-02-27 22:27:00,
2013-02-27 17:32:00,39.0,37.0,29.41,SW,225,0.0,0.0,92,0.06,,,0.84,Rainwise IP-100,2013-02-27 22:32:00,
2013-02-27 17:37:00,39.0,38.0,29.41,West,270,0.0,3.0,97,0.06,,,0.85,Rainwise IP-100,2013-02-27 22:37:00,
2013-02-27 17:42:00,39.0,39.0,29.41,West,270,0.0,1.0,100,0.06,,,0.85,Rainwise IP-100,2013-02-27 22:42:00,
2013-02-27 17:47:00,39.0,38.0,29.41,West,270,0.0,0.0,95,0.00,,,0.86,Rainwise IP-100,2013-02-27 22:47:00,
2013-02-27 17:52:00,39.0,38.0,29.41,West,270,0.0,0.0,95,0.06,,,0.86,Rainwise IP-100,2013-02-27 22:52:00,
2013-02-27 17:57:00,39.0,38.0,29.42,West,270,0.0,0.0,94,0.06,,,0.87,Rainwise IP-100,2013-02-27 22:57:00,
2013-02-27 18:02:00,39.0,38.0,29.42,West,270,0.0,0.0,95,0.06,,,0.87,Rainwise IP-100,2013-02-27 23:02:00,
2013-02-27 18:07:00,39.0,38.0,29.42,West,270,0.0,0.0,95,0.12,,,0.88,Rainwise IP-100,2013-02-27 23:07:00,
2013-02-27 18:12:00,39.0,38.0,29.42,West,270,0.0,0.0,97,0.12,,,0.89,Rainwise IP-100,2013-02-27 23:12:00,
2013-02-27 18:17:00,39.0,38.0,29.43,West,270,0.0,0.0,95,0.06,,,0.89,Rainwise IP-100,2013-02-27 23:17:00,
2013-02-27 18:22:00,39.0,39.0,29.43,West,270,0.0,0.0,99,0.06,,,0.90,Rainwise IP-100,2013-02-27 23:22:00,
2013-02-27 18:27:00,39.0,38.0,29.43,West,270,0.0,0.0,95,0.12,,,0.91,Rainwise IP-100,2013-02-27 23:27:00,
2013-02-27 18:32:00,39.0,38.0,29.44,West,270,0.0,0.0,97,0.12,,,0.92,Rainwise IP-100,2013-02-27 23:32:00,
2013-02-27 18:37:00,39.0,38.0,29.44,West,270,0.0,0.0,97,0.06,,,0.92,Rainwise IP-100,2013-02-27 23:37:00,
2013-02-27 18:42:00,38.0,37.0,29.44,SW,225,0.0,0.0,95,0.00,,,0.92,Rainwise IP-100,2013-02-27 23:42:00,
2013-02-27 18:47:00,38.0,37.0,29.44,SW,225,0.0,0.0,95,0.06,,,0.93,Rainwise IP-100,2013-02-27 23:47:00,
2013-02-27 18:52:00,38.0,38.0,29.44,NNW,337,0.0,0.0,100,0.12,,,0.94,Rainwise IP-100,2013-02-27 23:52:00,
2013-02-27 18:57:00,38.0,38.0,29.44,SE,135,0.0,0.0,100,0.06,,,0.94,Rainwise IP-100,2013-02-27 23:57:00,
2013-02-27 19:02:00,38.0,38.0,29.44,NE,45,0.0,0.0,100,0.06,,,0.95,Rainwise IP-100,2013-02-28 00:02:00,
2013-02-27 19:07:00,38.0,38.0,29.44,ENE,67,0.0,0.0,100,0.06,,,0.95,Rainwise IP-100,2013-02-28 00:07:00,
2013-02-27 19:12:00,38.0,38.0,29.44,ENE,67,0.0,0.0,100,0.00,,,0.95,Rainwise IP-100,2013-02-28 00:12:00,
2013-02-27 19:17:00,38.0,38.0,29.44,NNE,22,0.0,0.0,100,0.00,,,0.95,Rainwise IP-100,2013-02-28 00:17:00,
2013-02-27 19:22:00,38.0,38.0,29.44,NNE,22,0.0,0.0,100,0.00,,,0.95,Rainwise IP-100,2013-02-28 00:22:00,
2013-02-27 19:27:00,38.0,38.0,29.44,NNW,337,0.0,0.0,100,0.00,,,0.95,Rainwise IP-100,2013-02-28 00:27:00,
2013-02-27 19:32:00,38.0,38.0,29.44,WNW,292,0.0,0.0,100,0.00,,,0.95,Rainwise IP-100,2013-02-28 00:32:00,
2013-02-27 19:37:00,38.0,38.0,29.45,WNW,292,0.0,0.0,100,0.00,,,0.95,Rainwise IP-100,2013-02-28 00:37:00,
2013-02-27 19:42:00,38.0,38.0,29.45,NW,315,0.0,0.0,100,0.00,,,0.95,Rainwise IP-100,2013-02-28 00:42:00,
2013-02-27 19:47:00,38.0,38.0,29.45,NNW,337,0.0,0.0,100,0.06,,,0.96,Rainwise IP-100,2013-02-28 00:47:00,
2013-02-27 19:52:00,38.0,38.0,29.45,NW,315,0.0,0.0,100,0.12,,,0.97,Rainwise IP-100,2013-02-28 00:52:00,
2013-02-27 19:57:00,38.0,38.0,29.45,NW,315,0.0,0.0,100,0.06,,,0.97,Rainwise IP-100,2013-02-28 00:57:00,
2013-02-27 20:02:00,38.0,38.0,29.45,SSW,202,0.0,0.0,100,0.00,,,0.97,Rainwise IP-100,2013-02-28 01:02:00,
2013-02-27 20:07:00,38.0,38.0,29.45,SE,135,0.0,0.0,100,0.06,,,0.98,Rainwise IP-100,2013-02-28 01:07:00,
2013-02-27 20:12:00,38.0,38.0,29.45,ESE,112,0.0,0.0,100,0.06,,,0.98,Rainwise IP-100,2013-02-28 01:12:00,
2013-02-27 20:17:00,38.0,38.0,29.45,ESE,112,0.0,0.0,100,0.00,,,0.98,Rainwise IP-100,2013-02-28 01:17:00,
2013-02-27 20:22:00,38.0,38.0,29.45,East,90,0.0,0.0,100,0.00,,,0.98,Rainwise IP-100,2013-02-28 01:22:00,
2013-02-27 20:27:00,37.0,37.0,29.45,ENE,67,0.0,0.0,100,0.00,,,0.98,Rainwise IP-100,2013-02-28 01:27:00,
2013-02-27 20:32:00,38.0,38.0,29.45,East,90,0.0,0.0,100,0.00,,,0.98,Rainwise IP-100,2013-02-28 01:32:00,
2013-02-27 20:37:00,37.0,37.0,29.45,ENE,67,2.0,6.0,100,0.00,,,0.98,Rainwise IP-100,2013-02-28 01:37:00,
2013-02-27 20:42:00,37.0,37.0,29.45,ENE,67,5.0,6.0,100,0.00,,,0.98,Rainwise IP-100,2013-02-28 01:42:00,
2013-02-27 20:47:00,37.0,37.0,29.45,East,90,6.0,8.0,100,0.00,,,0.98,Rainwise IP-100,2013-02-28 01:47:00,
2013-02-27 20:52:00,37.0,37.0,29.45,ENE,67,8.0,10.0,100,0.00,,,0.98,Rainwise IP-100,2013-02-28 01:52:00,
2013-02-27 20:57:00,37.0,37.0,29.45,ENE,67,6.0,12.0,100,0.00,,,0.98,Rainwise IP-100,2013-02-28 01:57:00,
2013-02-27 21:02:00,37.0,37.0,29.45,East,90,6.0,10.0,100,0.00,,,0.98,Rainwise IP-100,2013-02-28 02:02:00,
2013-02-27 21:07:00,37.0,37.0,29.45,ENE,67,8.0,9.0,100,0.06,,,0.99,Rainwise IP-100,2013-02-28 02:07:00,
2013-02-27 21:12:00,37.0,37.0,29.46,East,90,4.0,8.0,100,0.06,,,0.99,Rainwise IP-100,2013-02-28 02:12:00,
2013-02-27 21:17:00,37.0,37.0,29.46,East,90,0.0,6.0,100,0.00,,,0.99,Rainwise IP-100,2013-02-28 02:17:00,
2013-02-27 21:22:00,37.0,37.0,29.46,ESE,112,1.0,4.0,100,0.00,,,0.99,Rainwise IP-100,2013-02-28 02:22:00,
2013-02-27 21:27:00,37.0,37.0,29.46,East,90,5.0,6.0,100,0.00,,,0.99,Rainwise IP-100,2013-02-28 02:27:00,
2013-02-27 21:32:00,37.0,37.0,29.46,East,90,4.0,6.0,100,0.00,,,0.99,Rainwise IP-100,2013-02-28 02:32:00,
2013-02-27 21:37:00,37.0,37.0,29.46,East,90,8.0,11.0,100,0.00,,,0.99,Rainwise IP-100,2013-02-28 02:37:00,
2013-02-27 21:42:00,37.0,37.0,29.46,East,90,5.0,9.0,100,0.00,,,0.99,Rainwise IP-100,2013-02-28 02:42:00,
2013-02-27 21:47:00,38.0,38.0,29.47,East,90,1.0,7.0,100,0.00,,,0.99,Rainwise IP-100,2013-02-28 02:47:00,
2013-02-27 21:52:00,37.0,37.0,29.47,ESE,112,4.0,5.0,100,0.00,,,0.99,Rainwise IP-100,2013-02-28 02:52:00,
2013-02-27 21:57:00,37.0,37.0,29.47,ESE,112,1.0,4.0,100,0.00,,,0.99,Rainwise IP-100,2013-02-28 02:57:00,
2013-02-27 22:02:00,37.0,37.0,29.47,ESE,112,0.0,4.0,100,0.00,,,0.99,Rainwise IP-100,2013-02-28 03:02:00,
2013-02-27 22:07:00,37.0,37.0,29.47,ESE,112,2.0,5.0,100,0.00,,,0.99,Rainwise IP-100,2013-02-28 03:07:00,
2013-02-27 22:12:00,37.0,37.0,29.47,ESE,112,0.0,3.0,100,0.00,,,0.99,Rainwise IP-100,2013-02-28 03:12:00,
2013-02-27 22:17:00,37.0,37.0,29.47,ESE,112,0.0,2.0,100,0.00,,,0.99,Rainwise IP-100,2013-02-28 03:17:00,
2013-02-27 22:22:00,37.0,37.0,29.47,ESE,112,0.0,0.0,100,0.00,,,0.99,Rainwise IP-100,2013-02-28 03:22:00,
2013-02-27 22:27:00,37.0,37.0,29.47,ESE,112,0.0,0.0,100,0.00,,,0.99,Rainwise IP-100,2013-02-28 03:27:00,
2013-02-27 22:32:00,37.0,37.0,29.47,NNW,337,0.0,0.0,100,0.00,,,0.99,Rainwise IP-100,2013-02-28 03:32:00,
2013-02-27 22:37:00,37.0,37.0,29.47,WNW,292,0.0,3.0,100,0.00,,,0.99,Rainwise IP-100,2013-02-28 03:37:00,
2013-02-27 22:42:00,37.0,37.0,29.47,NNW,337,0.0,0.0,100,0.00,,,0.99,Rainwise IP-100,2013-02-28 03:42:00,
2013-02-27 22:47:00,37.0,37.0,29.47,North,360,0.0,0.0,100,0.00,,,0.99,Rainwise IP-100,2013-02-28 03:47:00,
2013-02-27 22:52:00,37.0,37.0,29.47,NE,45,0.0,0.0,100,0.00,,,0.99,Rainwise IP-100,2013-02-28 03:52:00,
2013-02-27 22:57:00,36.0,36.0,29.47,NE,45,0.0,0.0,100,0.00,,,0.99,Rainwise IP-100,2013-02-28 03:57:00,
2013-02-27 23:02:00,37.0,37.0,29.47,North,360,0.0,0.0,100,0.00,,,0.99,Rainwise IP-100,2013-02-28 04:02:00,
2013-02-27 23:07:00,36.0,36.0,29.47,NE,45,0.0,0.0,100,0.00,,,0.99,Rainwise IP-100,2013-02-28 04:07:00,
2013-02-27 23:12:00,36.0,36.0,29.46,East,90,0.0,0.0,100,0.00,,,0.99,Rainwise IP-100,2013-02-28 04:12:00,
2013-02-27 23:17:00,36.0,36.0,29.46,ENE,67,0.0,0.0,100,0.00,,,0.99,Rainwise IP-100,2013-02-28 04:17:00,
2013-02-27 23:22:00,36.0,36.0,29.46,NE,45,0.0,0.0,100,0.00,,,0.99,Rainwise IP-100,2013-02-28 04:22:00,
2013-02-27 23:27:00,36.0,36.0,29.46,ENE,67,0.0,0.0,100,0.00,,,0.99,Rainwise IP-100,2013-02-28 04:27:00,
2013-02-27 23:32:00,36.0,36.0,29.46,East,90,0.0,0.0,100,0.00,,,0.99,Rainwise IP-100,2013-02-28 04:32:00,
2013-02-27 23:37:00,36.0,36.0,29.46,East,90,0.0,0.0,100,0.00,,,0.99,Rainwise IP-100,2013-02-28 04:37:00,
2013-02-27 23:42:00,36.0,36.0,29.45,ENE,67,0.0,0.0,100,0.00,,,0.99,Rainwise IP-100,2013-02-28 04:42:00,
2013-02-27 23:47:00,36.0,36.0,29.45,ENE,67,0.0,0.0,100,0.00,,,0.99,Rainwise IP-100,2013-02-28 04:47:00,
2013-02-27 23:52:00,36.0,36.0,29.45,ENE,67,0.0,0.0,100,0.00,,,0.99,Rainwise IP-100,2013-02-28 04:52:00,
2013-02-27 23:57:00,36.0,36.0,29.45,ENE,67,0.0,0.0,100,0.00,,,0.99,Rainwise IP-100,2013-02-28 04:57:00,